iso_date,epoch_date,Year,Hour,Min,DOY,POS_DOY,Lat,Lon,BP,Ts,Ta,has_bp,has_ts,has_ta,BuoyID,Buoy_Type,Buoy_Owner,Logistics,Hemisphere
2017-09-28T00:00:00Z,1506556800,2017,0,0,271.0,271.0,54.8708,171.043,1023.8,10.88,-999.0,yes,yes,no,300234063891670,BD2GI,AOML,WWD_COLUMBIA,North
2017-09-28T01:00:28Z,1506560429,2017,1,0,271.042,271.042,54.8724,171.0568,1023.5,10.88,-999.0,yes,yes,no,300234063891670,BD2GI,AOML,WWD_COLUMBIA,North
2017-09-28T01:59:31Z,1506563971,2017,2,0,271.083,271.083,54.8742,171.0726,1023.3,10.91,-999.0,yes,yes,no,300234063891670,BD2GI,AOML,WWD_COLUMBIA,North
2017-09-28T03:00:00Z,1506567600,2017,3,0,271.125,271.125,54.8746,171.087,1023.3,10.91,-999.0,yes,yes,no,300234063891670,BD2GI,AOML,WWD_COLUMBIA,North
2017-09-28T04:00:28Z,1506571229,2017,4,0,271.167,271.167,54.8722,171.1012,1023.6,10.91,-999.0,yes,yes,no,300234063891670,BD2GI,AOML,WWD_COLUMBIA,North
2017-09-28T04:59:31Z,1506574771,2017,5,0,271.208,271.208,54.8694,171.1102,1023.7,10.88,-999.0,yes,yes,no,300234063891670,BD2GI,AOML,WWD_COLUMBIA,North
2017-09-28T06:00:00Z,1506578400,2017,6,0,271.25,271.25,54.8686,171.117,1023.9,10.88,-999.0,yes,yes,no,300234063891670,BD2GI,AOML,WWD_COLUMBIA,North
2017-09-28T07:00:28Z,1506582029,2017,7,0,271.292,271.292,54.8696,171.1252,1024.2,10.88,-999.0,yes,yes,no,300234063891670,BD2GI,AOML,WWD_COLUMBIA,North
2017-09-28T07:59:31Z,1506585571,2017,8,0,271.333,271.333,54.8698,171.1348,1024.7,10.85,-999.0,yes,yes,no,300234063891670,BD2GI,AOML,WWD_COLUMBIA,North
2017-09-28T09:00:00Z,1506589200,2017,9,0,271.375,271.375,54.8708,171.1452,1024.8,10.81,-999.0,yes,yes,no,300234063891670,BD2GI,AOML,WWD_COLUMBIA,North
2017-09-28T10:00:28Z,1506592829,2017,10,0,271.417,271.417,54.8728,171.1568,1025.1,10.81,-999.0,yes,yes,no,300234063891670,BD2GI,AOML,WWD_COLUMBIA,North
2017-09-28T10:59:31Z,1506596371,2017,11,0,271.458,271.458,54.875,171.1724,1025.4,10.81,-999.0,yes,yes,no,300234063891670,BD2GI,AOML,WWD_COLUMBIA,North
2017-09-28T12:00:00Z,1506600000,2017,12,0,271.5,271.5,54.8764,171.1908,1025.6,10.78,-999.0,yes,yes,no,300234063891670,BD2GI,AOML,WWD_COLUMBIA,North
2017-09-28T13:00:28Z,1506603629,2017,13,0,271.542,271.542,54.8768,171.207,1025.8,10.78,-999.0,yes,yes,no,300234063891670,BD2GI,AOML,WWD_COLUMBIA,North
2017-09-28T13:59:31Z,1506607171,2017,14,0,271.583,271.583,54.8762,171.2228,1025.8,10.78,-999.0,yes,yes,no,300234063891670,BD2GI,AOML,WWD_COLUMBIA,North
2017-09-28T15:00:00Z,1506610800,2017,15,0,271.625,271.625,54.874,171.2374,1025.4,10.78,-999.0,yes,yes,no,300234063891670,BD2GI,AOML,WWD_COLUMBIA,North
2017-09-28T16:00:28Z,1506614429,2017,16,0,271.667,271.667,54.8716,171.2498,1025.8,10.78,-999.0,yes,yes,no,300234063891670,BD2GI,AOML,WWD_COLUMBIA,North
2017-09-28T16:59:31Z,1506617971,2017,17,0,271.708,271.708,54.8696,171.2572,1026.0,10.78,-999.0,yes,yes,no,300234063891670,BD2GI,AOML,WWD_COLUMBIA,North
2017-09-28T18:00:00Z,1506621600,2017,18,0,271.75,271.75,54.8698,171.2624,1026.2,10.78,-999.0,yes,yes,no,300234063891670,BD2GI,AOML,WWD_COLUMBIA,North
2017-09-28T19:00:28Z,1506625229,2017,19,0,271.792,271.792,54.871,171.2708,1026.5,10.78,-999.0,yes,yes,no,300234063891670,BD2GI,AOML,WWD_COLUMBIA,North
2017-09-28T19:59:31Z,1506628771,2017,20,0,271.833,271.833,54.8728,171.2796,1026.8,10.78,-999.0,yes,yes,no,300234063891670,BD2GI,AOML,WWD_COLUMBIA,North
2017-09-28T21:00:00Z,1506632400,2017,21,0,271.875,271.875,54.875,171.288,1027.1,10.78,-999.0,yes,yes,no,300234063891670,BD2GI,AOML,WWD_COLUMBIA,North
2017-09-28T22:00:28Z,1506636029,2017,22,0,271.917,271.917,54.8772,171.2988,1027.2,10.78,-999.0,yes,yes,no,300234063891670,BD2GI,AOML,WWD_COLUMBIA,North
2017-09-28T22:59:31Z,1506639571,2017,23,0,271.958,271.958,54.8802,171.312,1027.7,10.78,-999.0,yes,yes,no,300234063891670,BD2GI,AOML,WWD_COLUMBIA,North
2017-09-29T00:00:00Z,1506643200,2017,0,0,272.0,272.0,54.8838,171.3228,1027.6,10.81,-999.0,yes,yes,no,300234063891670,BD2GI,AOML,WWD_COLUMBIA,North
2017-09-29T01:00:28Z,1506646829,2017,1,0,272.042,272.042,54.886,171.3346,1027.4,10.85,-999.0,yes,yes,no,300234063891670,BD2GI,AOML,WWD_COLUMBIA,North
2017-09-29T01:59:31Z,1506650371,2017,2,0,272.083,272.083,54.8886,171.3478,1027.1,10.85,-999.0,yes,yes,no,300234063891670,BD2GI,AOML,WWD_COLUMBIA,North
2017-09-29T03:00:00Z,1506654000,2017,3,0,272.125,272.125,54.8912,171.3628,1027.0,10.85,-999.0,yes,yes,no,300234063891670,BD2GI,AOML,WWD_COLUMBIA,North
2017-09-29T04:00:28Z,1506657629,2017,4,0,272.167,272.167,54.8936,171.3788,1026.9,10.81,-999.0,yes,yes,no,300234063891670,BD2GI,AOML,WWD_COLUMBIA,North
2017-09-29T04:59:31Z,1506661171,2017,5,0,272.208,272.208,54.8954,171.391,1026.7,10.78,-999.0,yes,yes,no,300234063891670,BD2GI,AOML,WWD_COLUMBIA,North
2017-09-29T06:00:00Z,1506664800,2017,6,0,272.25,272.25,54.8978,171.4036,1026.5,10.74,-999.0,yes,yes,no,300234063891670,BD2GI,AOML,WWD_COLUMBIA,North
2017-09-29T07:00:28Z,1506668429,2017,7,0,272.292,272.292,54.9006,171.4144,1026.4,10.74,-999.0,yes,yes,no,300234063891670,BD2GI,AOML,WWD_COLUMBIA,North
2017-09-29T07:59:31Z,1506671971,2017,8,0,272.333,272.333,54.9022,171.4258,1026.7,10.74,-999.0,yes,yes,no,300234063891670,BD2GI,AOML,WWD_COLUMBIA,North
2017-09-29T09:00:00Z,1506675600,2017,9,0,272.375,272.375,54.9044,171.4374,1026.4,10.74,-999.0,yes,yes,no,300234063891670,BD2GI,AOML,WWD_COLUMBIA,North
2017-09-29T10:00:28Z,1506679229,2017,10,0,272.417,272.417,54.9068,171.4476,1026.5,10.74,-999.0,yes,yes,no,300234063891670,BD2GI,AOML,WWD_COLUMBIA,North
2017-09-29T10:59:31Z,1506682771,2017,11,0,272.458,272.458,54.9124,171.4546,1025.8,10.74,-999.0,yes,yes,no,300234063891670,BD2GI,AOML,WWD_COLUMBIA,North
2017-09-29T12:00:00Z,1506686400,2017,12,0,272.5,272.5,54.9196,171.459,1024.8,10.74,-999.0,yes,yes,no,300234063891670,BD2GI,AOML,WWD_COLUMBIA,North
2017-09-29T13:00:28Z,1506690029,2017,13,0,272.542,272.542,54.9298,171.4638,1024.4,10.74,-999.0,yes,yes,no,300234063891670,BD2GI,AOML,WWD_COLUMBIA,North
2017-09-29T13:59:31Z,1506693571,2017,14,0,272.583,272.583,54.9404,171.4672,1023.8,10.71,-999.0,yes,yes,no,300234063891670,BD2GI,AOML,WWD_COLUMBIA,North
2017-09-29T15:00:00Z,1506697200,2017,15,0,272.625,272.625,54.9508,171.4716,1022.8,10.67,-999.0,yes,yes,no,300234063891670,BD2GI,AOML,WWD_COLUMBIA,North
2017-09-29T16:00:28Z,1506700829,2017,16,0,272.667,272.667,54.9602,171.4748,1021.7,10.67,-999.0,yes,yes,no,300234063891670,BD2GI,AOML,WWD_COLUMBIA,North
2017-09-29T16:59:31Z,1506704371,2017,17,0,272.708,272.708,54.9706,171.48,1021.2,10.67,-999.0,yes,yes,no,300234063891670,BD2GI,AOML,WWD_COLUMBIA,North
2017-09-29T18:00:00Z,1506708000,2017,18,0,272.75,272.75,54.98,171.4876,1020.9,10.67,-999.0,yes,yes,no,300234063891670,BD2GI,AOML,WWD_COLUMBIA,North
2017-09-29T19:00:28Z,1506711629,2017,19,0,272.792,272.792,54.991,171.494,1020.5,10.67,-999.0,yes,yes,no,300234063891670,BD2GI,AOML,WWD_COLUMBIA,North
2017-09-29T19:59:31Z,1506715171,2017,20,0,272.833,272.833,55.003,171.5002,1020.0,10.64,-999.0,yes,yes,no,300234063891670,BD2GI,AOML,WWD_COLUMBIA,North
2017-09-29T21:00:00Z,1506718800,2017,21,0,272.875,272.875,55.014,171.5052,1019.2,10.61,-999.0,yes,yes,no,300234063891670,BD2GI,AOML,WWD_COLUMBIA,North
2017-09-29T22:00:28Z,1506722429,2017,22,0,272.917,272.917,55.0258,171.51,1018.5,10.57,-999.0,yes,yes,no,300234063891670,BD2GI,AOML,WWD_COLUMBIA,North
2017-09-29T22:59:31Z,1506725971,2017,23,0,272.958,272.958,55.0388,171.515,1017.9,10.5,-999.0,yes,yes,no,300234063891670,BD2GI,AOML,WWD_COLUMBIA,North
2017-09-30T00:00:00Z,1506729600,2017,0,0,273.0,273.0,55.0514,171.5184,1017.1,10.5,-999.0,yes,yes,no,300234063891670,BD2GI,AOML,WWD_COLUMBIA,North
2017-09-30T01:00:28Z,1506733229,2017,1,0,273.042,273.042,55.0646,171.522,1016.4,10.5,-999.0,yes,yes,no,300234063891670,BD2GI,AOML,WWD_COLUMBIA,North
2017-09-30T01:59:31Z,1506736771,2017,2,0,273.083,273.083,55.077,171.526,1015.9,10.47,-999.0,yes,yes,no,300234063891670,BD2GI,AOML,WWD_COLUMBIA,North
2017-09-30T03:00:00Z,1506740400,2017,3,0,273.125,273.125,55.0884,171.529,1015.4,10.43,-999.0,yes,yes,no,300234063891670,BD2GI,AOML,WWD_COLUMBIA,North
2017-09-30T04:00:28Z,1506744029,2017,4,0,273.167,273.167,55.0994,171.5278,1014.9,10.4,-999.0,yes,yes,no,300234063891670,BD2GI,AOML,WWD_COLUMBIA,North
2017-09-30T04:59:31Z,1506747571,2017,5,0,273.208,273.208,55.1106,171.5264,1014.4,10.57,-999.0,yes,yes,no,300234063891670,BD2GI,AOML,WWD_COLUMBIA,North
2017-09-30T06:00:00Z,1506751200,2017,6,0,273.25,273.25,55.1206,171.521,1013.7,10.61,-999.0,yes,yes,no,300234063891670,BD2GI,AOML,WWD_COLUMBIA,North
2017-09-30T07:00:28Z,1506754829,2017,7,0,273.292,273.292,55.1314,171.5116,1012.8,10.5,-999.0,yes,yes,no,300234063891670,BD2GI,AOML,WWD_COLUMBIA,North
2017-09-30T07:59:31Z,1506758371,2017,8,0,273.333,273.333,55.1452,171.5004,1011.5,10.37,-999.0,yes,yes,no,300234063891670,BD2GI,AOML,WWD_COLUMBIA,North
2017-09-30T09:00:00Z,1506762000,2017,9,0,273.375,273.375,55.1606,171.4912,1009.8,10.37,-999.0,yes,yes,no,300234063891670,BD2GI,AOML,WWD_COLUMBIA,North
2017-09-30T10:00:28Z,1506765629,2017,10,0,273.417,273.417,55.1772,171.4822,1008.1,10.37,-999.0,yes,yes,no,300234063891670,BD2GI,AOML,WWD_COLUMBIA,North
2017-09-30T10:59:31Z,1506769171,2017,11,0,273.458,273.458,55.1926,171.474,1006.3,10.37,-999.0,yes,yes,no,300234063891670,BD2GI,AOML,WWD_COLUMBIA,North
2017-09-30T12:00:00Z,1506772800,2017,12,0,273.5,273.5,55.2104,171.469,1004.4,10.33,-999.0,yes,yes,no,300234063891670,BD2GI,AOML,WWD_COLUMBIA,North
2017-09-30T13:00:28Z,1506776429,2017,13,0,273.542,273.542,55.2284,171.4678,1002.8,10.33,-999.0,yes,yes,no,300234063891670,BD2GI,AOML,WWD_COLUMBIA,North
2017-09-30T13:59:31Z,1506779971,2017,14,0,273.583,273.583,55.2462,171.4716,1001.5,10.33,-999.0,yes,yes,no,300234063891670,BD2GI,AOML,WWD_COLUMBIA,North
2017-09-30T15:00:00Z,1506783600,2017,15,0,273.625,273.625,55.2604,171.4794,1000.9,10.43,-999.0,yes,yes,no,300234063891670,BD2GI,AOML,WWD_COLUMBIA,North
2017-09-30T16:00:28Z,1506787229,2017,16,0,273.667,273.667,55.2706,171.4908,1001.3,10.47,-999.0,yes,yes,no,300234063891670,BD2GI,AOML,WWD_COLUMBIA,North
2017-09-30T16:59:31Z,1506790771,2017,17,0,273.708,273.708,55.2756,171.5024,1002.1,10.54,-999.0,yes,yes,no,300234063891670,BD2GI,AOML,WWD_COLUMBIA,North
2017-09-30T18:00:00Z,1506794400,2017,18,0,273.75,273.75,55.277,171.5138,1003.3,10.54,-999.0,yes,yes,no,300234063891670,BD2GI,AOML,WWD_COLUMBIA,North
2017-09-30T19:00:28Z,1506798029,2017,19,0,273.792,273.792,55.2756,171.521,1004.5,10.57,-999.0,yes,yes,no,300234063891670,BD2GI,AOML,WWD_COLUMBIA,North
2017-09-30T19:59:31Z,1506801571,2017,20,0,273.833,273.833,55.2742,171.5218,1005.2,10.57,-999.0,yes,yes,no,300234063891670,BD2GI,AOML,WWD_COLUMBIA,North
2017-09-30T21:00:00Z,1506805200,2017,21,0,273.875,273.875,55.2744,171.5178,1006.1,10.57,-999.0,yes,yes,no,300234063891670,BD2GI,AOML,WWD_COLUMBIA,North
2017-09-30T22:00:28Z,1506808829,2017,22,0,273.917,273.917,55.2764,171.5098,1006.4,10.57,-999.0,yes,yes,no,300234063891670,BD2GI,AOML,WWD_COLUMBIA,North
2017-09-30T22:59:31Z,1506812371,2017,23,0,273.958,273.958,55.2828,171.4984,1006.7,10.61,-999.0,yes,yes,no,300234063891670,BD2GI,AOML,WWD_COLUMBIA,North
2017-10-01T00:00:00Z,1506816000,2017,0,0,274.0,274.0,55.2926,171.489,1007.0,10.61,-999.0,yes,yes,no,300234063891670,BD2GI,AOML,WWD_COLUMBIA,North
2017-10-01T01:00:28Z,1506819629,2017,1,0,274.042,274.042,55.3042,171.485,1006.8,10.57,-999.0,yes,yes,no,300234063891670,BD2GI,AOML,WWD_COLUMBIA,North
2017-10-01T01:59:31Z,1506823171,2017,2,0,274.083,274.083,55.3182,171.4882,1006.7,10.57,-999.0,yes,yes,no,300234063891670,BD2GI,AOML,WWD_COLUMBIA,North
2017-10-01T03:00:00Z,1506826800,2017,3,0,274.125,274.125,55.333,171.4956,1006.7,10.54,-999.0,yes,yes,no,300234063891670,BD2GI,AOML,WWD_COLUMBIA,North
2017-10-01T04:00:28Z,1506830429,2017,4,0,274.167,274.167,55.3476,171.5052,1006.5,10.47,-999.0,yes,yes,no,300234063891670,BD2GI,AOML,WWD_COLUMBIA,North
2017-10-01T04:59:31Z,1506833971,2017,5,0,274.208,274.208,55.3608,171.517,1006.4,10.43,-999.0,yes,yes,no,300234063891670,BD2GI,AOML,WWD_COLUMBIA,North
2017-10-01T06:00:00Z,1506837600,2017,6,0,274.25,274.25,55.3726,171.53,1006.3,10.4,-999.0,yes,yes,no,300234063891670,BD2GI,AOML,WWD_COLUMBIA,North
2017-10-01T07:00:28Z,1506841229,2017,7,0,274.292,274.292,55.3834,171.5434,1006.2,10.37,-999.0,yes,yes,no,300234063891670,BD2GI,AOML,WWD_COLUMBIA,North
2017-10-01T07:59:31Z,1506844771,2017,8,0,274.333,274.333,55.3928,171.5576,1005.9,10.33,-999.0,yes,yes,no,300234063891670,BD2GI,AOML,WWD_COLUMBIA,North
2017-10-01T09:00:00Z,1506848400,2017,9,0,274.375,274.375,55.4032,171.5698,1005.5,10.33,-999.0,yes,yes,no,300234063891670,BD2GI,AOML,WWD_COLUMBIA,North
2017-10-01T10:00:28Z,1506852029,2017,10,0,274.417,274.417,55.4128,171.5828,1005.2,10.3,-999.0,yes,yes,no,300234063891670,BD2GI,AOML,WWD_COLUMBIA,North
2017-10-01T10:59:31Z,1506855571,2017,11,0,274.458,274.458,55.4202,171.5974,1004.9,10.3,-999.0,yes,yes,no,300234063891670,BD2GI,AOML,WWD_COLUMBIA,North
2017-10-01T12:00:00Z,1506859200,2017,12,0,274.5,274.5,55.424,171.6138,1004.9,10.26,-999.0,yes,yes,no,300234063891670,BD2GI,AOML,WWD_COLUMBIA,North
2017-10-01T13:00:28Z,1506862829,2017,13,0,274.542,274.542,55.4256,171.6284,1004.5,10.23,-999.0,yes,yes,no,300234063891670,BD2GI,AOML,WWD_COLUMBIA,North
2017-10-01T13:59:31Z,1506866371,2017,14,0,274.583,274.583,55.425,171.6398,1004.1,10.2,-999.0,yes,yes,no,300234063891670,BD2GI,AOML,WWD_COLUMBIA,North
2017-10-01T15:00:00Z,1506870000,2017,15,0,274.625,274.625,55.4248,171.645,1003.6,10.2,-999.0,yes,yes,no,300234063891670,BD2GI,AOML,WWD_COLUMBIA,North
2017-10-01T16:00:28Z,1506873629,2017,16,0,274.667,274.667,55.4254,171.6462,1003.4,10.16,-999.0,yes,yes,no,300234063891670,BD2GI,AOML,WWD_COLUMBIA,North
2017-10-01T16:59:31Z,1506877171,2017,17,0,274.708,274.708,55.4278,171.6438,1003.5,10.13,-999.0,yes,yes,no,300234063891670,BD2GI,AOML,WWD_COLUMBIA,North
2017-10-01T18:00:00Z,1506880800,2017,18,0,274.75,274.75,55.4338,171.6408,1003.8,10.13,-999.0,yes,yes,no,300234063891670,BD2GI,AOML,WWD_COLUMBIA,North
2017-10-01T19:00:28Z,1506884429,2017,19,0,274.792,274.792,55.4432,171.6418,1003.9,10.13,-999.0,yes,yes,no,300234063891670,BD2GI,AOML,WWD_COLUMBIA,North
2017-10-01T19:59:31Z,1506887971,2017,20,0,274.833,274.833,55.4546,171.649,1003.9,10.13,-999.0,yes,yes,no,300234063891670,BD2GI,AOML,WWD_COLUMBIA,North
2017-10-01T21:00:00Z,1506891600,2017,21,0,274.875,274.875,55.467,171.6622,1004.7,10.13,-999.0,yes,yes,no,300234063891670,BD2GI,AOML,WWD_COLUMBIA,North
2017-10-01T22:00:28Z,1506895229,2017,22,0,274.917,274.917,55.4764,171.6802,1004.9,10.13,-999.0,yes,yes,no,300234063891670,BD2GI,AOML,WWD_COLUMBIA,North
2017-10-01T22:59:31Z,1506898771,2017,23,0,274.958,274.958,55.483,171.7008,1005.0,10.13,-999.0,yes,yes,no,300234063891670,BD2GI,AOML,WWD_COLUMBIA,North
2017-10-02T00:00:00Z,1506902400,2017,0,0,275.0,275.0,55.4866,171.7236,1005.1,10.2,-999.0,yes,yes,no,300234063891670,BD2GI,AOML,WWD_COLUMBIA,North
2017-10-02T01:00:28Z,1506906029,2017,1,0,275.042,275.042,55.4856,171.7466,1005.3,10.23,-999.0,yes,yes,no,300234063891670,BD2GI,AOML,WWD_COLUMBIA,North
2017-10-02T01:59:31Z,1506909571,2017,2,0,275.083,275.083,55.4798,171.7674,1005.1,10.23,-999.0,yes,yes,no,300234063891670,BD2GI,AOML,WWD_COLUMBIA,North
2017-10-02T03:00:00Z,1506913200,2017,3,0,275.125,275.125,55.4708,171.7822,1005.3,10.23,-999.0,yes,yes,no,300234063891670,BD2GI,AOML,WWD_COLUMBIA,North
2017-10-02T04:00:28Z,1506916829,2017,4,0,275.167,275.167,55.4622,171.7898,1006.1,10.23,-999.0,yes,yes,no,300234063891670,BD2GI,AOML,WWD_COLUMBIA,North
2017-10-02T04:59:31Z,1506920371,2017,5,0,275.208,275.208,55.454,171.792,1006.7,10.23,-999.0,yes,yes,no,300234063891670,BD2GI,AOML,WWD_COLUMBIA,North
2017-10-02T06:00:00Z,1506924000,2017,6,0,275.25,275.25,55.4464,171.7896,1007.2,10.23,-999.0,yes,yes,no,300234063891670,BD2GI,AOML,WWD_COLUMBIA,North
2017-10-02T07:00:28Z,1506927629,2017,7,0,275.292,275.292,55.4426,171.7806,1007.7,10.2,-999.0,yes,yes,no,300234063891670,BD2GI,AOML,WWD_COLUMBIA,North
2017-10-02T07:59:31Z,1506931171,2017,8,0,275.333,275.333,55.4442,171.771,1008.1,10.2,-999.0,yes,yes,no,300234063891670,BD2GI,AOML,WWD_COLUMBIA,North
2017-10-02T09:00:00Z,1506934800,2017,9,0,275.375,275.375,55.4498,171.7674,1008.2,10.2,-999.0,yes,yes,no,300234063891670,BD2GI,AOML,WWD_COLUMBIA,North
2017-10-02T10:00:28Z,1506938429,2017,10,0,275.417,275.417,55.4586,171.7722,1008.1,10.16,-999.0,yes,yes,no,300234063891670,BD2GI,AOML,WWD_COLUMBIA,North
2017-10-02T10:59:31Z,1506941971,2017,11,0,275.458,275.458,55.4684,171.7856,1007.7,10.16,-999.0,yes,yes,no,300234063891670,BD2GI,AOML,WWD_COLUMBIA,North
2017-10-02T12:00:00Z,1506945600,2017,12,0,275.5,275.5,55.4754,171.8056,1007.4,10.16,-999.0,yes,yes,no,300234063891670,BD2GI,AOML,WWD_COLUMBIA,North
2017-10-02T13:00:28Z,1506949229,2017,13,0,275.542,275.542,55.4802,171.8286,1007.4,10.16,-999.0,yes,yes,no,300234063891670,BD2GI,AOML,WWD_COLUMBIA,North
2017-10-02T13:59:31Z,1506952771,2017,14,0,275.583,275.583,55.483,171.8496,1006.7,10.16,-999.0,yes,yes,no,300234063891670,BD2GI,AOML,WWD_COLUMBIA,North
2017-10-02T15:00:00Z,1506956400,2017,15,0,275.625,275.625,55.4832,171.8704,1006.0,10.2,-999.0,yes,yes,no,300234063891670,BD2GI,AOML,WWD_COLUMBIA,North
2017-10-02T16:00:28Z,1506960029,2017,16,0,275.667,275.667,55.4802,171.8904,1005.2,10.2,-999.0,yes,yes,no,300234063891670,BD2GI,AOML,WWD_COLUMBIA,North
2017-10-02T16:59:31Z,1506963571,2017,17,0,275.708,275.708,55.4734,171.9004,1004.2,10.2,-999.0,yes,yes,no,300234063891670,BD2GI,AOML,WWD_COLUMBIA,North
2017-10-02T18:00:00Z,1506967200,2017,18,0,275.75,275.75,55.4674,171.9058,1003.3,10.2,-999.0,yes,yes,no,300234063891670,BD2GI,AOML,WWD_COLUMBIA,North
2017-10-02T19:00:28Z,1506970829,2017,19,0,275.792,275.792,55.464,171.9044,1001.7,10.2,-999.0,yes,yes,no,300234063891670,BD2GI,AOML,WWD_COLUMBIA,North
2017-10-02T19:59:31Z,1506974371,2017,20,0,275.833,275.833,55.464,171.8938,999.2,10.16,-999.0,yes,yes,no,300234063891670,BD2GI,AOML,WWD_COLUMBIA,North
2017-10-02T21:00:00Z,1506978000,2017,21,0,275.875,275.875,55.4688,171.8806,997.2,10.2,-999.0,yes,yes,no,300234063891670,BD2GI,AOML,WWD_COLUMBIA,North
2017-10-02T22:00:28Z,1506981629,2017,22,0,275.917,275.917,55.4774,171.8726,996.0,10.2,-999.0,yes,yes,no,300234063891670,BD2GI,AOML,WWD_COLUMBIA,North
2017-10-02T22:59:31Z,1506985171,2017,23,0,275.958,275.958,55.4874,171.8734,995.5,10.23,-999.0,yes,yes,no,300234063891670,BD2GI,AOML,WWD_COLUMBIA,North
2017-10-03T00:00:00Z,1506988800,2017,0,0,276.0,276.0,55.4976,171.885,995.3,10.2,-999.0,yes,yes,no,300234063891670,BD2GI,AOML,WWD_COLUMBIA,North
2017-10-03T01:00:28Z,1506992429,2017,1,0,276.042,276.042,55.506,171.902,995.1,10.2,-999.0,yes,yes,no,300234063891670,BD2GI,AOML,WWD_COLUMBIA,North
2017-10-03T01:59:31Z,1506995971,2017,2,0,276.083,276.083,55.5116,171.9266,995.0,10.2,-999.0,yes,yes,no,300234063891670,BD2GI,AOML,WWD_COLUMBIA,North
2017-10-03T03:00:00Z,1506999600,2017,3,0,276.125,276.125,55.5134,171.9524,994.8,10.2,-999.0,yes,yes,no,300234063891670,BD2GI,AOML,WWD_COLUMBIA,North
2017-10-03T04:00:28Z,1507003229,2017,4,0,276.167,276.167,55.513,171.977,995.0,10.2,-999.0,yes,yes,no,300234063891670,BD2GI,AOML,WWD_COLUMBIA,North
2017-10-03T04:59:31Z,1507006771,2017,5,0,276.208,276.208,55.5084,171.9986,995.2,10.2,-999.0,yes,yes,no,300234063891670,BD2GI,AOML,WWD_COLUMBIA,North
2017-10-03T06:00:00Z,1507010400,2017,6,0,276.25,276.25,55.5008,172.0138,995.6,10.2,-999.0,yes,yes,no,300234063891670,BD2GI,AOML,WWD_COLUMBIA,North
2017-10-03T07:00:28Z,1507014029,2017,7,0,276.292,276.292,55.4924,172.0254,996.0,10.2,-999.0,yes,yes,no,300234063891670,BD2GI,AOML,WWD_COLUMBIA,North
2017-10-03T07:59:31Z,1507017571,2017,8,0,276.333,276.333,55.4844,172.032,996.5,10.23,-999.0,yes,yes,no,300234063891670,BD2GI,AOML,WWD_COLUMBIA,North
2017-10-03T09:00:00Z,1507021200,2017,9,0,276.375,276.375,55.478,172.034,996.5,10.23,-999.0,yes,yes,no,300234063891670,BD2GI,AOML,WWD_COLUMBIA,North
2017-10-03T10:00:28Z,1507024829,2017,10,0,276.417,276.417,55.4748,172.032,997.4,10.23,-999.0,yes,yes,no,300234063891670,BD2GI,AOML,WWD_COLUMBIA,North
2017-10-03T10:59:31Z,1507028371,2017,11,0,276.458,276.458,55.4748,172.0322,997.5,10.26,-999.0,yes,yes,no,300234063891670,BD2GI,AOML,WWD_COLUMBIA,North
2017-10-03T12:00:00Z,1507032000,2017,12,0,276.5,276.5,55.4754,172.0352,998.0,10.26,-999.0,yes,yes,no,300234063891670,BD2GI,AOML,WWD_COLUMBIA,North
2017-10-03T13:00:28Z,1507035629,2017,13,0,276.542,276.542,55.4768,172.0382,998.2,10.3,-999.0,yes,yes,no,300234063891670,BD2GI,AOML,WWD_COLUMBIA,North
2017-10-03T13:59:31Z,1507039171,2017,14,0,276.583,276.583,55.4796,172.0408,998.4,10.33,-999.0,yes,yes,no,300234063891670,BD2GI,AOML,WWD_COLUMBIA,North
2017-10-03T15:00:00Z,1507042800,2017,15,0,276.625,276.625,55.4828,172.0482,998.8,10.37,-999.0,yes,yes,no,300234063891670,BD2GI,AOML,WWD_COLUMBIA,North
2017-10-03T16:00:28Z,1507046429,2017,16,0,276.667,276.667,55.4854,172.061,998.4,10.37,-999.0,yes,yes,no,300234063891670,BD2GI,AOML,WWD_COLUMBIA,North
2017-10-03T16:59:31Z,1507049971,2017,17,0,276.708,276.708,55.4874,172.0766,998.3,10.4,-999.0,yes,yes,no,300234063891670,BD2GI,AOML,WWD_COLUMBIA,North
2017-10-03T18:00:00Z,1507053600,2017,18,0,276.75,276.75,55.4894,172.0938,998.2,10.4,-999.0,yes,yes,no,300234063891670,BD2GI,AOML,WWD_COLUMBIA,North
2017-10-03T19:00:28Z,1507057229,2017,19,0,276.792,276.792,55.489,172.1122,998.2,10.4,-999.0,yes,yes,no,300234063891670,BD2GI,AOML,WWD_COLUMBIA,North
2017-10-03T19:59:31Z,1507060771,2017,20,0,276.833,276.833,55.486,172.1304,998.0,10.4,-999.0,yes,yes,no,300234063891670,BD2GI,AOML,WWD_COLUMBIA,North
2017-10-03T21:00:00Z,1507064400,2017,21,0,276.875,276.875,55.481,172.1444,997.2,10.4,-999.0,yes,yes,no,300234063891670,BD2GI,AOML,WWD_COLUMBIA,North
2017-10-03T22:00:28Z,1507068029,2017,22,0,276.917,276.917,55.4744,172.1528,996.3,10.4,-999.0,yes,yes,no,300234063891670,BD2GI,AOML,WWD_COLUMBIA,North
2017-10-03T22:59:31Z,1507071571,2017,23,0,276.958,276.958,55.4672,172.154,995.0,10.4,-999.0,yes,yes,no,300234063891670,BD2GI,AOML,WWD_COLUMBIA,North
2017-10-04T00:00:00Z,1507075200,2017,0,0,277.0,277.0,55.4624,172.153,994.0,10.4,-999.0,yes,yes,no,300234063891670,BD2GI,AOML,WWD_COLUMBIA,North
2017-10-04T01:00:28Z,1507078829,2017,1,0,277.042,277.042,55.4588,172.1482,992.5,10.37,-999.0,yes,yes,no,300234063891670,BD2GI,AOML,WWD_COLUMBIA,North
2017-10-04T01:59:31Z,1507082371,2017,2,0,277.083,277.083,55.4586,172.141,990.5,10.4,-999.0,yes,yes,no,300234063891670,BD2GI,AOML,WWD_COLUMBIA,North
2017-10-04T03:00:00Z,1507086000,2017,3,0,277.125,277.125,55.4606,172.1314,988.5,10.4,-999.0,yes,yes,no,300234063891670,BD2GI,AOML,WWD_COLUMBIA,North
2017-10-04T04:00:28Z,1507089629,2017,4,0,277.167,277.167,55.4624,172.125,987.1,10.4,-999.0,yes,yes,no,300234063891670,BD2GI,AOML,WWD_COLUMBIA,North
2017-10-04T04:59:31Z,1507093171,2017,5,0,277.208,277.208,55.4636,172.1188,985.6,10.4,-999.0,yes,yes,no,300234063891670,BD2GI,AOML,WWD_COLUMBIA,North
2017-10-04T06:00:00Z,1507096800,2017,6,0,277.25,277.25,55.465,172.1188,984.2,10.37,-999.0,yes,yes,no,300234063891670,BD2GI,AOML,WWD_COLUMBIA,North
2017-10-04T07:00:28Z,1507100429,2017,7,0,277.292,277.292,55.4628,172.1254,983.6,10.37,-999.0,yes,yes,no,300234063891670,BD2GI,AOML,WWD_COLUMBIA,North
2017-10-04T07:59:31Z,1507103971,2017,8,0,277.333,277.333,55.4608,172.134,983.2,10.37,-999.0,yes,yes,no,300234063891670,BD2GI,AOML,WWD_COLUMBIA,North
2017-10-04T09:00:00Z,1507107600,2017,9,0,277.375,277.375,55.4578,172.145,982.8,10.37,-999.0,yes,yes,no,300234063891670,BD2GI,AOML,WWD_COLUMBIA,North
2017-10-04T10:00:28Z,1507111229,2017,10,0,277.417,277.417,55.4526,172.1564,982.3,10.37,-999.0,yes,yes,no,300234063891670,BD2GI,AOML,WWD_COLUMBIA,North
2017-10-04T10:59:31Z,1507114771,2017,11,0,277.458,277.458,55.4476,172.1672,981.8,10.37,-999.0,yes,yes,no,300234063891670,BD2GI,AOML,WWD_COLUMBIA,North
2017-10-04T12:00:00Z,1507118400,2017,12,0,277.5,277.5,55.4442,172.1786,981.7,10.37,-999.0,yes,yes,no,300234063891670,BD2GI,AOML,WWD_COLUMBIA,North
2017-10-04T13:00:28Z,1507122029,2017,13,0,277.542,277.542,55.4396,172.1936,981.6,10.37,-999.0,yes,yes,no,300234063891670,BD2GI,AOML,WWD_COLUMBIA,North
2017-10-04T13:59:31Z,1507125571,2017,14,0,277.583,277.583,55.4334,172.2092,981.5,10.37,-999.0,yes,yes,no,300234063891670,BD2GI,AOML,WWD_COLUMBIA,North